Time,TemperatureF,DewpointF,PressureIn,WindDirection,WindDirectionDegrees,WindSpeedMPH,WindSpeedGustMPH,Humidity,HourlyPrecipIn,Conditions,Clouds,dailyrainin,SoftwareType,DateUTC
2013-01-18 12:55:00,67.5,35.0,29.47,NE,48,22.4,22.4,30,0.00,,FEW,0.00,VWS V14.00,2013-01-18 20:55:00,
2013-01-18 12:56:00,67.5,35.0,29.47,NE,48,22.4,22.4,30,0.00,,FEW,0.00,VWS V14.00,2013-01-18 20:56:00,
2013-01-18 12:57:00,72.3,38.3,29.47,NE,48,14.1,22.6,29,0.00,,FEW,0.00,VWS V14.00,2013-01-18 20:57:00,
2013-01-18 12:58:00,72.3,38.3,29.47,NE,48,10.3,17.5,29,0.00,,FEW,0.00,VWS V14.00,2013-01-18 20:58:00,
2013-01-18 12:59:00,72.5,38.5,29.47,NE,48,7.4,13.2,29,0.00,,FEW,0.00,VWS V14.00,2013-01-18 20:59:00,
2013-01-18 13:00:00,72.7,38.6,29.47,North,2,12.5,15.4,29,0.00,,FEW,0.00,VWS V14.00,2013-01-18 21:00:00,
2013-01-18 13:01:00,72.7,38.6,29.47,North,2,14.5,14.5,29,0.00,,FEW,0.00,VWS V14.00,2013-01-18 21:01:00,
2013-01-18 13:02:00,72.7,38.6,29.47,NE,48,7.8,15.4,29,0.00,,FEW,0.00,VWS V14.00,2013-01-18 21:02:00,
2013-01-18 13:03:00,72.9,38.8,29.47,NE,48,7.6,15.4,29,0.00,,FEW,0.00,VWS V14.00,2013-01-18 21:03:00,
2013-01-18 13:04:00,72.7,38.6,29.50,NE,48,7.6,7.6,29,0.00,,FEW,0.00,VWS V14.00,2013-01-18 21:04:00,
2013-01-18 13:05:00,72.9,38.8,29.50,NNE,25,13.2,22.2,29,0.00,,FEW,0.00,VWS V14.00,2013-01-18 21:05:00,
2013-01-18 13:06:00,73.0,38.9,29.50,NE,48,16.1,16.3,29,0.00,,FEW,0.00,VWS V14.00,2013-01-18 21:06:00,
2013-01-18 13:07:00,72.9,38.8,29.50,North,2,17.7,22.2,29,0.00,,FEW,0.00,VWS V14.00,2013-01-18 21:07:00,
2013-01-18 13:08:00,72.9,38.8,29.50,NNE,25,10.1,18.1,29,0.00,,FEW,0.00,VWS V14.00,2013-01-18 21:08:00,
2013-01-18 13:09:00,72.7,38.6,29.50,NE,48,10.1,15.4,29,0.00,,FEW,0.00,VWS V14.00,2013-01-18 21:09:00,
2013-01-18 13:10:00,72.7,38.6,29.50,North,2,13.0,13.0,29,0.00,,FEW,0.00,VWS V14.00,2013-01-18 21:10:00,
2013-01-18 13:11:00,72.7,38.6,29.50,North,2,13.0,13.0,29,0.00,,FEW,0.00,VWS V14.00,2013-01-18 21:11:00,
2013-01-18 13:12:00,72.9,38.8,29.50,NE,48,10.5,13.0,29,0.00,,FEW,0.00,VWS V14.00,2013-01-18 21:12:00,
2013-01-18 13:13:00,72.9,38.8,29.50,ENE,70,11.4,14.1,29,0.00,,FEW,0.00,VWS V14.00,2013-01-18 21:13:00,
2013-01-18 13:14:00,72.9,38.8,29.50,NNE,25,15.2,19.9,29,0.00,,FEW,0.00,VWS V14.00,2013-01-18 21:14:00,
2013-01-18 13:15:00,72.9,38.8,29.50,East,92,6.9,13.0,29,0.00,,FEW,0.00,VWS V14.00,2013-01-18 21:15:00,
2013-01-18 13:16:00,72.7,38.6,29.50,NW,318,13.0,14.8,29,0.00,,FEW,0.00,VWS V14.00,2013-01-18 21:16:00,
2013-01-18 13:17:00,72.9,38.8,29.50,NE,48,9.8,13.0,29,0.00,,FEW,0.00,VWS V14.00,2013-01-18 21:17:00,
2013-01-18 13:18:00,72.5,38.5,29.50,North,2,15.4,17.5,29,0.00,,FEW,0.00,VWS V14.00,2013-01-18 21:18:00,
2013-01-18 13:19:00,72.9,38.8,29.50,NE,48,8.5,16.8,29,0.00,,FEW,0.00,VWS V14.00,2013-01-18 21:19:00,
2013-01-18 13:20:00,72.5,38.5,29.50,NE,48,8.7,15.2,29,0.00,,FEW,0.00,VWS V14.00,2013-01-18 21:20:00,
2013-01-18 13:21:00,72.9,38.8,29.50,NE,48,15.2,19.7,29,0.00,,FEW,0.00,VWS V14.00,2013-01-18 21:21:00,
2013-01-18 13:22:00,72.5,38.5,29.50,NE,48,13.0,15.2,29,0.00,,FEW,0.00,VWS V14.00,2013-01-18 21:22:00,
2013-01-18 13:23:00,72.5,38.5,29.50,NE,48,10.7,13.0,29,0.00,,FEW,0.00,VWS V14.00,2013-01-18 21:23:00,
2013-01-18 13:24:00,72.1,38.2,29.50,North,2,12.8,12.8,29,0.00,,FEW,0.00,VWS V14.00,2013-01-18 21:24:00,
2013-01-18 13:25:00,71.8,37.8,29.50,NNE,25,9.2,15.9,29,0.00,,FEW,0.00,VWS V14.00,2013-01-18 21:25:00,
2013-01-18 13:26:00,71.8,37.8,29.50,NNE,25,15.9,15.9,29,0.00,,FEW,0.00,VWS V14.00,2013-01-18 21:26:00,
2013-01-18 13:27:00,71.8,37.8,29.50,NNE,25,9.2,15.9,29,0.00,,FEW,0.00,VWS V14.00,2013-01-18 21:27:00,
2013-01-18 13:28:00,71.6,37.7,29.50,NNE,25,12.5,12.5,29,0.00,,FEW,0.00,VWS V14.00,2013-01-18 21:28:00,
2013-01-18 13:29:00,71.4,38.4,29.50,NE,48,13.2,13.2,30,0.00,,FEW,0.00,VWS V14.00,2013-01-18 21:29:00,
2013-01-18 13:30:00,71.6,37.7,29.50,SSE,160,4.0,12.5,29,0.00,,FEW,0.00,VWS V14.00,2013-01-18 21:30:00,
2013-01-18 13:31:00,71.6,37.7,29.50,North,2,12.5,12.5,29,0.00,,FEW,0.00,VWS V14.00,2013-01-18 21:31:00,
2013-01-18 13:32:00,71.6,37.7,29.50,SSE,160,4.0,12.5,29,0.00,,FEW,0.00,VWS V14.00,2013-01-18 21:32:00,
2013-01-18 13:33:00,71.6,37.7,29.50,NE,48,5.6,7.6,29,0.00,,FEW,0.00,VWS V14.00,2013-01-18 21:33:00,
2013-01-18 13:34:00,71.8,37.8,29.50,North,2,10.3,10.3,29,0.00,,FEW,0.00,VWS V14.00,2013-01-18 21:34:00,
2013-01-18 13:35:00,71.6,37.7,29.50,NE,48,9.8,9.8,29,0.00,,FEW,0.00,VWS V14.00,2013-01-18 21:35:00,
2013-01-18 13:36:00,71.6,37.7,29.50,NE,48,9.8,9.8,29,0.00,,FEW,0.00,VWS V14.00,2013-01-18 21:36:00,
2013-01-18 13:37:00,71.6,37.7,29.50,NE,48,9.8,9.8,29,0.00,,FEW,0.00,VWS V14.00,2013-01-18 21:37:00,
2013-01-18 13:38:00,71.8,37.8,29.50,North,2,10.7,11.0,29,0.00,,FEW,0.00,VWS V14.00,2013-01-18 21:38:00,
2013-01-18 13:39:00,71.8,37.8,29.50,North,2,10.7,10.7,29,0.00,,FEW,0.00,VWS V14.00,2013-01-18 21:39:00,
2013-01-18 13:40:00,72.0,38.0,29.50,North,2,9.6,9.6,29,0.00,,FEW,0.00,VWS V14.00,2013-01-18 21:40:00,
2013-01-18 13:41:00,72.0,38.0,29.50,North,2,7.2,10.1,29,0.00,,FEW,0.00,VWS V14.00,2013-01-18 21:41:00,
2013-01-18 13:42:00,72.1,38.2,29.50,North,2,10.1,10.1,29,0.00,,FEW,0.00,VWS V14.00,2013-01-18 21:42:00,
2013-01-18 13:43:00,72.1,38.2,29.50,North,2,10.1,10.1,29,0.00,,FEW,0.00,VWS V14.00,2013-01-18 21:43:00,
2013-01-18 13:44:00,72.1,38.2,29.50,NNE,25,9.6,10.1,29,0.00,,FEW,0.00,VWS V14.00,2013-01-18 21:44:00,
2013-01-18 13:45:00,72.3,38.3,29.50,NE,48,6.3,19.2,29,0.00,,FEW,0.00,VWS V14.00,2013-01-18 21:45:00,
2013-01-18 13:46:00,72.1,38.2,29.50,ENE,70,19.2,19.2,29,0.00,,FEW,0.00,VWS V14.00,2013-01-18 21:46:00,
2013-01-18 13:47:00,72.3,38.3,29.50,NE,48,13.2,19.2,29,0.00,,FEW,0.00,VWS V14.00,2013-01-18 21:47:00,
2013-01-18 13:48:00,72.3,38.3,29.50,NE,48,12.5,13.9,29,0.00,,FEW,0.00,VWS V14.00,2013-01-18 21:48:00,
2013-01-18 13:49:00,72.3,38.3,29.50,North,2,7.8,12.5,29,0.00,,FEW,0.00,VWS V14.00,2013-01-18 21:49:00,
2013-01-18 13:50:00,72.7,38.6,29.50,ENE,70,6.0,7.4,29,0.00,,FEW,0.00,VWS V14.00,2013-01-18 21:50:00,
2013-01-18 13:51:00,72.7,38.6,29.50,NE,48,5.6,7.6,29,0.00,,FEW,0.00,VWS V14.00,2013-01-18 21:51:00,
2013-01-18 13:52:00,72.7,38.6,29.50,NE,48,5.6,7.4,29,0.00,,FEW,0.00,VWS V14.00,2013-01-18 21:52:00,
2013-01-18 13:53:00,72.9,38.8,29.50,NE,48,9.8,9.8,29,0.00,,FEW,0.00,VWS V14.00,2013-01-18 21:53:00,
2013-01-18 13:54:00,72.9,38.8,29.50,NNE,25,11.4,11.4,29,0.00,,FEW,0.00,VWS V14.00,2013-01-18 21:54:00,
2013-01-18 13:55:00,73.0,38.9,29.50,NE,48,11.2,11.2,29,0.00,,FEW,0.00,VWS V14.00,2013-01-18 21:55:00,
2013-01-18 13:56:00,73.0,38.9,29.50,NNE,25,8.5,9.8,29,0.00,,FEW,0.00,VWS V14.00,2013-01-18 21:56:00,
2013-01-18 13:57:00,72.9,38.8,29.50,East,92,9.8,11.2,29,0.00,,FEW,0.00,VWS V14.00,2013-01-18 21:57:00,
2013-01-18 13:58:00,72.9,38.8,29.50,East,92,10.3,14.1,29,0.00,,FEW,0.00,VWS V14.00,2013-01-18 21:58:00,
2013-01-18 13:59:00,72.9,38.8,29.50,North,2,7.6,10.5,29,0.00,,FEW,0.00,VWS V14.00,2013-01-18 21:59:00,
2013-01-18 14:00:00,73.0,38.9,29.50,ENE,70,6.5,7.2,29,0.00,,FEW,0.00,VWS V14.00,2013-01-18 22:00:00,
2013-01-18 14:01:00,73.0,38.9,29.50,NE,48,5.8,9.0,29,0.00,,FEW,0.00,VWS V14.00,2013-01-18 22:01:00,
2013-01-18 14:02:00,73.0,38.9,29.50,NNE,25,8.7,8.7,29,0.00,,FEW,0.00,VWS V14.00,2013-01-18 22:02:00,
2013-01-18 14:03:00,73.2,39.1,29.50,NE,48,5.6,8.7,29,0.00,,FEW,0.00,VWS V14.00,2013-01-18 22:03:00,
2013-01-18 14:04:00,73.4,39.2,29.50,ENE,70,5.6,6.7,29,0.00,,FEW,0.00,VWS V14.00,2013-01-18 22:04:00,
2013-01-18 14:05:00,73.2,39.1,29.50,NE,48,7.6,8.5,29,0.00,,FEW,0.00,VWS V14.00,2013-01-18 22:05:00,
2013-01-18 14:06:00,73.2,39.1,29.50,NNW,340,6.5,13.6,29,0.00,,FEW,0.00,VWS V14.00,2013-01-18 22:06:00,
2013-01-18 14:07:00,73.4,39.2,29.50,North,2,17.7,17.7,29,0.00,,FEW,0.00,VWS V14.00,2013-01-18 22:07:00,
2013-01-18 14:08:00,73.6,39.4,29.50,North,2,10.5,17.7,29,0.00,,FEW,0.00,VWS V14.00,2013-01-18 22:08:00,
2013-01-18 14:09:00,73.6,39.4,29.50,NE,48,5.4,10.5,29,0.00,,FEW,0.00,VWS V14.00,2013-01-18 22:09:00,
2013-01-18 14:10:00,73.2,39.1,29.50,NE,48,12.3,12.3,29,0.00,,FEW,0.00,VWS V14.00,2013-01-18 22:10:00,
2013-01-18 14:11:00,73.6,39.4,29.50,North,2,8.5,13.2,29,0.00,,FEW,0.00,VWS V14.00,2013-01-18 22:11:00,
2013-01-18 14:12:00,73.2,39.1,29.50,NE,48,10.7,12.3,29,0.00,,FEW,0.00,VWS V14.00,2013-01-18 22:12:00,
2013-01-18 14:13:00,73.2,39.1,29.50,East,92,8.7,10.7,29,0.00,,FEW,0.00,VWS V14.00,2013-01-18 22:13:00,
2013-01-18 14:15:00,73.0,38.9,29.50,North,2,8.1,8.1,29,0.00,,FEW,0.00,VWS V14.00,2013-01-18 22:15:00,
2013-01-18 14:17:00,73.0,38.9,29.50,North,2,8.1,8.1,29,0.00,,FEW,0.00,VWS V14.00,2013-01-18 22:17:00,
2013-01-18 14:18:00,73.0,38.9,29.50,NE,48,8.1,8.1,29,0.00,,FEW,0.00,VWS V14.00,2013-01-18 22:18:00,
2013-01-18 14:19:00,72.9,38.8,29.50,NE,48,11.0,13.0,29,0.00,,FEW,0.00,VWS V14.00,2013-01-18 22:19:00,
2013-01-18 14:20:00,72.5,38.5,29.50,NNE,25,11.2,11.2,29,0.00,,FEW,0.00,VWS V14.00,2013-01-18 22:20:00,
2013-01-18 14:21:00,72.5,38.5,29.50,East,92,8.7,10.7,29,0.00,,FEW,0.00,VWS V14.00,2013-01-18 22:21:00,
2013-01-18 14:22:00,72.3,38.3,29.50,NE,48,7.8,11.2,29,0.00,,FEW,0.00,VWS V14.00,2013-01-18 22:22:00,
2013-01-18 14:23:00,72.3,38.3,29.50,East,92,10.5,10.5,29,0.00,,FEW,0.00,VWS V14.00,2013-01-18 22:23:00,
2013-01-18 14:24:00,72.1,38.2,29.50,East,92,8.1,10.5,29,0.00,,FEW,0.00,VWS V14.00,2013-01-18 22:24:00,
2013-01-18 14:25:00,71.8,37.8,29.50,East,92,6.0,11.4,29,0.00,,FEW,0.00,VWS V14.00,2013-01-18 22:25:00,
2013-01-18 14:26:00,71.8,37.8,29.50,ESE,115,11.4,11.4,29,0.00,,FEW,0.00,VWS V14.00,2013-01-18 22:26:00,
2013-01-18 14:27:00,71.6,37.7,29.50,East,92,6.9,11.4,29,0.00,,FEW,0.00,VWS V14.00,2013-01-18 22:27:00,
2013-01-18 14:28:00,71.6,37.7,29.50,NE,48,6.0,6.9,29,0.00,,FEW,0.00,VWS V14.00,2013-01-18 22:28:00,
2013-01-18 14:29:00,71.6,37.7,29.50,ENE,70,6.0,6.0,29,0.00,,FEW,0.00,VWS V14.00,2013-01-18 22:29:00,
2013-01-18 14:30:00,71.2,38.2,29.50,NE,48,8.5,8.5,30,0.00,,FEW,0.00,VWS V14.00,2013-01-18 22:30:00,
2013-01-18 14:31:00,71.4,38.4,29.50,North,2,6.0,6.0,30,0.00,,FEW,0.00,VWS V14.00,2013-01-18 22:31:00,
2013-01-18 14:32:00,71.2,38.2,29.50,NE,48,12.8,12.8,30,0.00,,FEW,0.00,VWS V14.00,2013-01-18 22:32:00,
2013-01-18 14:33:00,71.2,38.2,29.50,NE,48,11.0,12.8,30,0.00,,FEW,0.00,VWS V14.00,2013-01-18 22:33:00,
2013-01-18 14:34:00,71.2,38.2,29.50,NE,48,11.0,11.0,30,0.00,,FEW,0.00,VWS V14.00,2013-01-18 22:34:00,
2013-01-18 14:35:00,71.2,38.2,29.50,NNE,25,8.1,8.1,30,0.00,,FEW,0.00,VWS V14.00,2013-01-18 22:35:00,
2013-01-18 14:36:00,71.2,38.2,29.50,NE,48,8.1,8.1,30,0.00,,FEW,0.00,VWS V14.00,2013-01-18 22:36:00,
2013-01-18 14:37:00,71.2,38.2,29.50,NNE,25,8.1,8.1,30,0.00,,FEW,0.00,VWS V14.00,2013-01-18 22:37:00,
2013-01-18 14:38:00,71.2,38.2,29.50,North,2,8.1,12.8,30,0.00,,FEW,0.00,VWS V14.00,2013-01-18 22:38:00,
2013-01-18 14:39:00,71.2,38.2,29.50,East,92,5.6,8.1,30,0.00,,FEW,0.00,VWS V14.00,2013-01-18 22:39:00,
2013-01-18 14:40:00,71.2,38.2,29.50,NE,48,11.0,11.0,30,0.00,,FEW,0.00,VWS V14.00,2013-01-18 22:40:00,
2013-01-18 14:41:00,71.1,38.1,29.50,East,92,9.6,13.2,30,0.00,,FEW,0.00,VWS V14.00,2013-01-18 22:41:00,
2013-01-18 14:42:00,71.1,38.1,29.50,East,92,11.0,11.0,30,0.00,,FEW,0.00,VWS V14.00,2013-01-18 22:42:00,
2013-01-18 14:43:00,71.1,38.1,29.50,NE,48,8.7,11.0,30,0.00,,FEW,0.00,VWS V14.00,2013-01-18 22:43:00,
2013-01-18 14:44:00,71.1,38.1,29.50,NE,48,8.7,8.7,30,0.00,,FEW,0.00,VWS V14.00,2013-01-18 22:44:00,
2013-01-18 14:45:00,71.2,38.2,29.50,North,2,18.1,18.1,30,0.00,,FEW,0.00,VWS V14.00,2013-01-18 22:45:00,
2013-01-18 14:46:00,71.1,38.1,29.50,NNE,25,8.5,11.0,30,0.00,,FEW,0.00,VWS V14.00,2013-01-18 22:46:00,
2013-01-18 14:47:00,71.2,38.2,29.50,North,2,10.7,18.1,30,0.00,,FEW,0.00,VWS V14.00,2013-01-18 22:47:00,
2013-01-18 14:48:00,71.4,38.4,29.50,NE,48,10.3,10.7,30,0.00,,FEW,0.00,VWS V14.00,2013-01-18 22:48:00,
2013-01-18 14:49:00,71.6,37.7,29.50,NE,48,8.1,15.2,29,0.00,,FEW,0.00,VWS V14.00,2013-01-18 22:49:00,
2013-01-18 14:50:00,71.6,37.7,29.50,East,92,5.6,8.1,29,0.00,,FEW,0.00,VWS V14.00,2013-01-18 22:50:00,
2013-01-18 14:51:00,71.6,37.7,29.50,NE,48,8.1,8.1,29,0.00,,FEW,0.00,VWS V14.00,2013-01-18 22:51:00,
2013-01-18 14:52:00,71.4,38.4,29.50,East,92,5.6,8.1,30,0.00,,FEW,0.00,VWS V14.00,2013-01-18 22:52:00,
2013-01-18 14:53:00,71.4,38.4,29.50,North,2,10.5,10.5,30,0.00,,FEW,0.00,VWS V14.00,2013-01-18 22:53:00,
2013-01-18 14:54:00,71.2,38.2,29.50,North,2,12.5,12.5,30,0.00,,FEW,0.00,VWS V14.00,2013-01-18 22:54:00,
2013-01-18 14:55:00,71.4,38.4,29.50,NE,48,13.0,13.0,30,0.00,,FEW,0.00,VWS V14.00,2013-01-18 22:55:00,
2013-01-18 14:56:00,71.4,38.4,29.50,NE,48,13.0,17.5,30,0.00,,FEW,0.00,VWS V14.00,2013-01-18 22:56:00,
2013-01-18 14:57:00,71.4,38.4,29.50,NE,48,13.0,13.0,30,0.00,,FEW,0.00,VWS V14.00,2013-01-18 22:57:00,
2013-01-18 14:58:00,71.6,37.7,29.50,NE,48,17.0,17.0,29,0.00,,FEW,0.00,VWS V14.00,2013-01-18 22:58:00,
2013-01-18 14:59:00,71.6,37.7,29.50,NE,48,12.8,17.0,29,0.00,,FEW,0.00,VWS V14.00,2013-01-18 22:59:00,
2013-01-18 15:00:00,71.4,38.4,29.50,NE,48,8.5,14.8,30,0.00,,FEW,0.00,VWS V14.00,2013-01-18 23:00:00,
2013-01-18 15:01:00,71.4,38.4,29.50,NE,48,14.8,14.8,30,0.00,,FEW,0.00,VWS V14.00,2013-01-18 23:01:00,
2013-01-18 15:02:00,71.4,38.4,29.50,North,2,12.8,14.8,30,0.00,,FEW,0.00,VWS V14.00,2013-01-18 23:02:00,
2013-01-18 15:03:00,71.4,38.4,29.50,North,2,9.4,12.8,30,0.00,,FEW,0.00,VWS V14.00,2013-01-18 23:03:00,
2013-01-18 15:05:00,71.4,38.4,29.47,NE,48,10.5,13.4,30,0.00,,FEW,0.00,VWS V14.00,2013-01-18 23:05:00,
2013-01-18 15:06:00,71.4,38.4,29.50,NE,48,13.4,13.4,30,0.00,,FEW,0.00,VWS V14.00,2013-01-18 23:06:00,
2013-01-18 15:07:00,71.2,38.2,29.47,NE,48,8.5,13.4,30,0.00,,FEW,0.00,VWS V14.00,2013-01-18 23:07:00,
2013-01-18 15:08:00,71.2,38.2,29.47,NE,48,13.6,13.6,30,0.00,,FEW,0.00,VWS V14.00,2013-01-18 23:08:00,
2013-01-18 15:09:00,71.2,38.2,29.47,NE,48,7.8,13.6,30,0.00,,FEW,0.00,VWS V14.00,2013-01-18 23:09:00,
2013-01-18 15:10:00,71.2,38.2,29.47,North,2,12.5,12.5,30,0.00,,FEW,0.00,VWS V14.00,2013-01-18 23:10:00,
2013-01-18 15:11:00,71.2,38.2,29.47,NE,48,11.0,12.1,30,0.00,,FEW,0.00,VWS V14.00,2013-01-18 23:11:00,
2013-01-18 15:12:00,71.2,38.2,29.47,ENE,70,10.7,12.5,30,0.00,,FEW,0.00,VWS V14.00,2013-01-18 23:12:00,
2013-01-18 15:13:00,71.2,38.2,29.47,NE,48,6.9,10.7,30,0.00,,FEW,0.00,VWS V14.00,2013-01-18 23:13:00,
2013-01-18 15:14:00,71.2,38.2,29.47,NNE,25,4.9,6.9,30,0.00,,FEW,0.00,VWS V14.00,2013-01-18 23:14:00,
2013-01-18 15:15:00,71.1,38.1,29.47,ENE,70,13.4,13.4,30,0.00,,FEW,0.00,VWS V14.00,2013-01-18 23:15:00,
2013-01-18 15:16:00,71.2,38.2,29.47,NE,48,10.7,10.7,30,0.00,,FEW,0.00,VWS V14.00,2013-01-18 23:16:00,
2013-01-18 15:17:00,71.1,38.1,29.47,North,2,10.7,13.4,30,0.00,,FEW,0.00,VWS V14.00,2013-01-18 23:17:00,
2013-01-18 15:18:00,71.1,38.1,29.47,North,2,6.3,10.7,30,0.00,,FEW,0.00,VWS V14.00,2013-01-18 23:18:00,
2013-01-18 15:19:00,71.1,38.1,29.47,North,2,13.4,13.4,30,0.00,,FEW,0.00,VWS V14.00,2013-01-18 23:19:00,
2013-01-18 15:20:00,71.2,38.2,29.50,North,2,5.8,10.7,30,0.00,,FEW,0.00,VWS V14.00,2013-01-18 23:20:00,
2013-01-18 15:21:00,71.2,38.2,29.50,NE,48,10.7,12.8,30,0.00,,FEW,0.00,VWS V14.00,2013-01-18 23:21:00,
2013-01-18 15:22:00,71.2,38.2,29.50,North,2,5.8,10.7,30,0.00,,FEW,0.00,VWS V14.00,2013-01-18 23:22:00,
2013-01-18 15:23:00,71.1,38.1,29.50,NE,48,6.3,6.3,30,0.00,,FEW,0.00,VWS V14.00,2013-01-18 23:23:00,
2013-01-18 15:24:00,71.1,38.1,29.50,NNE,25,12.3,12.3,30,0.00,,FEW,0.00,VWS V14.00,2013-01-18 23:24:00,
2013-01-18 15:25:00,71.1,38.1,29.50,NE,48,6.0,6.0,30,0.00,,FEW,0.00,VWS V14.00,2013-01-18 23:25:00,
2013-01-18 15:26:00,71.1,38.1,29.50,NE,48,6.0,10.3,30,0.00,,FEW,0.00,VWS V14.00,2013-01-18 23:26:00,
2013-01-18 15:27:00,70.9,37.9,29.50,East,92,8.1,8.1,30,0.00,,FEW,0.00,VWS V14.00,2013-01-18 23:27:00,
2013-01-18 15:28:00,70.9,37.9,29.50,East,92,8.1,8.1,30,0.00,,FEW,0.00,VWS V14.00,2013-01-18 23:28:00,
2013-01-18 15:30:00,70.9,37.9,29.50,NE,48,13.0,13.0,30,0.00,,FEW,0.00,VWS V14.00,2013-01-18 23:30:00,
2013-01-18 15:31:00,70.9,37.1,29.50,NE,48,13.0,13.0,29,0.00,,FEW,0.00,VWS V14.00,2013-01-18 23:31:00,
2013-01-18 15:32:00,70.9,37.9,29.50,NE,48,13.0,13.0,30,0.00,,FEW,0.00,VWS V14.00,2013-01-18 23:32:00,
2013-01-18 15:33:00,70.9,37.9,29.50,NE,48,13.0,13.0,30,0.00,,FEW,0.00,VWS V14.00,2013-01-18 23:33:00,
2013-01-18 15:34:00,71.1,38.1,29.50,NE,48,13.0,13.0,30,0.00,,FEW,0.00,VWS V14.00,2013-01-18 23:34:00,
2013-01-18 15:35:00,71.1,38.1,29.47,NE,48,10.5,10.5,30,0.00,,FEW,0.00,VWS V14.00,2013-01-18 23:35:00,
2013-01-18 15:36:00,71.1,38.1,29.47,SE,138,8.5,8.5,30,0.00,,FEW,0.00,VWS V14.00,2013-01-18 23:36:00,
2013-01-18 15:37:00,71.1,38.1,29.47,NE,48,10.5,10.5,30,0.00,,FEW,0.00,VWS V14.00,2013-01-18 23:37:00,
2013-01-18 15:38:00,70.9,37.9,29.47,NNE,25,7.4,10.5,30,0.00,,FEW,0.00,VWS V14.00,2013-01-18 23:38:00,
2013-01-18 15:39:00,70.9,37.9,29.47,East,92,4.9,7.4,30,0.00,,FEW,0.00,VWS V14.00,2013-01-18 23:39:00,
2013-01-18 15:40:00,70.7,37.8,29.47,NE,48,8.7,8.7,30,0.00,,FEW,0.00,VWS V14.00,2013-01-18 23:40:00,
2013-01-18 15:41:00,70.7,37.8,29.47,NE,48,8.7,8.7,30,0.00,,FEW,0.00,VWS V14.00,2013-01-18 23:41:00,
2013-01-18 15:42:00,70.7,36.9,29.47,NE,48,8.7,8.7,29,0.00,,FEW,0.00,VWS V14.00,2013-01-18 23:42:00,
2013-01-18 15:43:00,70.7,37.8,29.47,NE,48,8.7,8.7,30,0.00,,FEW,0.00,VWS V14.00,2013-01-18 23:43:00,
2013-01-18 15:44:00,70.7,37.8,29.47,NE,48,8.7,8.7,30,0.00,,FEW,0.00,VWS V14.00,2013-01-18 23:44:00,
2013-01-18 15:45:00,70.9,37.9,29.47,ENE,70,6.0,11.0,30,0.00,,FEW,0.00,VWS V14.00,2013-01-18 23:45:00,
2013-01-18 15:46:00,70.7,36.9,29.47,NE,48,11.0,11.0,29,0.00,,FEW,0.00,VWS V14.00,2013-01-18 23:46:00,
2013-01-18 15:47:00,70.9,37.9,29.47,North,2,12.5,12.5,30,0.00,,FEW,0.00,VWS V14.00,2013-01-18 23:47:00,
2013-01-18 15:48:00,70.7,37.8,29.47,NE,48,7.8,12.5,30,0.00,,FEW,0.00,VWS V14.00,2013-01-18 23:48:00,
2013-01-18 15:49:00,70.7,37.8,29.47,East,92,12.1,12.1,30,0.00,,FEW,0.00,VWS V14.00,2013-01-18 23:49:00,
2013-01-18 15:50:00,70.7,37.8,29.50,North,2,6.3,12.5,30,0.00,,FEW,0.00,VWS V14.00,2013-01-18 23:50:00,
2013-01-18 15:51:00,70.7,37.8,29.50,SE,138,12.5,12.5,30,0.00,,FEW,0.00,VWS V14.00,2013-01-18 23:51:00,
2013-01-18 15:52:00,70.7,37.8,29.50,North,2,6.3,12.5,30,0.00,,FEW,0.00,VWS V14.00,2013-01-18 23:52:00,
2013-01-18 15:53:00,70.7,37.8,29.50,North,2,6.3,6.3,30,0.00,,FEW,0.00,VWS V14.00,2013-01-18 23:53:00,
2013-01-18 15:54:00,70.7,37.8,29.50,NE,48,3.1,6.3,30,0.00,,FEW,0.00,VWS V14.00,2013-01-18 23:54:00,
2013-01-18 15:55:00,70.7,37.8,29.50,North,2,17.7,17.7,30,0.00,,FEW,0.00,VWS V14.00,2013-01-18 23:55:00,
2013-01-18 15:56:00,70.7,37.8,29.50,North,2,17.7,17.7,30,0.00,,FEW,0.00,VWS V14.00,2013-01-18 23:56:00,
2013-01-18 15:57:00,70.7,37.8,29.50,NNE,25,8.1,17.7,30,0.00,,FEW,0.00,VWS V14.00,2013-01-18 23:57:00,
2013-01-18 15:58:00,70.7,37.8,29.50,ENE,70,7.6,8.1,30,0.00,,FEW,0.00,VWS V14.00,2013-01-18 23:58:00,
2013-01-18 15:59:00,70.7,37.8,29.50,NE,48,8.1,8.1,30,0.00,,FEW,0.00,VWS V14.00,2013-01-18 23:59:00,
2013-01-18 16:00:00,70.3,37.5,29.50,East,92,4.9,6.0,30,0.00,,FEW,0.00,VWS V14.00,2013-01-19 00:00:00,
2013-01-18 16:01:00,70.5,37.6,29.50,NE,48,6.0,7.4,30,0.00,,FEW,0.00,VWS V14.00,2013-01-19 00:01:00,
2013-01-18 16:02:00,70.3,37.5,29.50,East,92,4.9,6.0,30,0.00,,FEW,0.00,VWS V14.00,2013-01-19 00:02:00,
2013-01-18 16:03:00,70.3,37.5,29.50,NE,48,5.6,5.6,30,0.00,,FEW,0.00,VWS V14.00,2013-01-19 00:03:00,
2013-01-18 16:04:00,70.3,37.5,29.50,SE,138,6.0,6.0,30,0.00,,FEW,0.00,VWS V14.00,2013-01-19 00:04:00,
2013-01-18 16:05:00,70.7,36.9,29.47,NNE,25,7.8,10.1,29,0.00,,FEW,0.00,VWS V14.00,2013-01-19 00:05:00,
2013-01-18 16:06:00,70.7,36.9,29.47,NE,48,10.1,10.1,29,0.00,,FEW,0.00,VWS V14.00,2013-01-19 00:06:00,
2013-01-18 16:07:00,70.5,37.6,29.47,NNE,25,7.8,10.1,30,0.00,,FEW,0.00,VWS V14.00,2013-01-19 00:07:00,
2013-01-18 16:08:00,70.5,36.8,29.47,NE,48,7.8,7.8,29,0.00,,FEW,0.00,VWS V14.00,2013-01-19 00:08:00,
2013-01-18 16:09:00,70.5,37.6,29.47,NE,48,7.8,7.8,30,0.00,,FEW,0.00,VWS V14.00,2013-01-19 00:09:00,
2013-01-18 16:10:00,70.3,36.6,29.47,NE,48,6.5,6.5,29,0.00,,FEW,0.00,VWS V14.00,2013-01-19 00:10:00,
2013-01-18 16:11:00,70.5,37.6,29.47,NE,48,6.5,9.4,30,0.00,,FEW,0.00,VWS V14.00,2013-01-19 00:11:00,
2013-01-18 16:12:00,70.3,36.6,29.47,NE,48,6.5,6.5,29,0.00,,FEW,0.00,VWS V14.00,2013-01-19 00:12:00,
2013-01-18 16:13:00,70.5,36.8,29.47,NE,48,8.5,8.5,29,0.00,,FEW,0.00,VWS V14.00,2013-01-19 00:13:00,
2013-01-18 16:14:00,70.3,36.6,29.47,North,2,8.1,8.5,29,0.00,,FEW,0.00,VWS V14.00,2013-01-19 00:14:00,
2013-01-18 16:15:00,70.2,36.5,29.47,ENE,70,5.8,5.8,29,0.00,,FEW,0.00,VWS V14.00,2013-01-19 00:15:00,
2013-01-18 16:16:00,70.3,36.6,29.47,ENE,70,5.8,7.8,29,0.00,,FEW,0.00,VWS V14.00,2013-01-19 00:16:00,
2013-01-18 16:17:00,70.2,36.5,29.47,ENE,70,5.8,5.8,29,0.00,,FEW,0.00,VWS V14.00,2013-01-19 00:17:00,
2013-01-18 16:18:00,70.2,36.5,29.47,ENE,70,5.8,5.8,29,0.00,,FEW,0.00,VWS V14.00,2013-01-19 00:18:00,
2013-01-18 16:19:00,70.2,36.5,29.47,ENE,70,5.8,5.8,29,0.00,,FEW,0.00,VWS V14.00,2013-01-19 00:19:00,
2013-01-18 16:20:00,70.0,36.3,29.50,ESE,115,9.2,9.2,29,0.00,,FEW,0.00,VWS V14.00,2013-01-19 00:20:00,
2013-01-18 16:21:00,70.0,36.3,29.50,East,92,5.8,8.1,29,0.00,,FEW,0.00,VWS V14.00,2013-01-19 00:21:00,
2013-01-18 16:22:00,70.0,36.3,29.50,ESE,115,9.2,9.2,29,0.00,,FEW,0.00,VWS V14.00,2013-01-19 00:22:00,
2013-01-18 16:23:00,69.8,36.1,29.50,NE,48,2.0,9.4,29,0.00,,FEW,0.00,VWS V14.00,2013-01-19 00:23:00,
2013-01-18 16:24:00,69.8,36.1,29.50,NNW,340,9.0,9.4,29,0.00,,FEW,0.00,VWS V14.00,2013-01-19 00:24:00,
2013-01-18 16:25:00,69.8,36.1,29.50,ENE,70,6.0,6.0,29,0.00,,FEW,0.00,VWS V14.00,2013-01-19 00:25:00,
2013-01-18 16:26:00,69.8,36.1,29.50,NE,48,3.4,10.1,29,0.00,,FEW,0.00,VWS V14.00,2013-01-19 00:26:00,
2013-01-18 16:27:00,69.8,36.1,29.50,ENE,70,6.5,6.5,29,0.00,,FEW,0.00,VWS V14.00,2013-01-19 00:27:00,
2013-01-18 16:28:00,69.6,36.8,29.50,North,2,8.7,8.7,30,0.00,,FEW,0.00,VWS V14.00,2013-01-19 00:28:00,
2013-01-18 16:29:00,69.8,36.1,29.50,NE,48,7.8,8.7,29,0.00,,FEW,0.00,VWS V14.00,2013-01-19 00:29:00,
2013-01-18 16:30:00,69.8,36.1,29.50,ENE,70,4.7,7.8,29,0.00,,FEW,0.00,VWS V14.00,2013-01-19 00:30:00,
2013-01-18 16:31:00,69.8,36.1,29.50,North,2,7.8,7.8,29,0.00,,FEW,0.00,VWS V14.00,2013-01-19 00:31:00,
2013-01-18 16:32:00,69.6,36.8,29.50,East,92,4.9,7.8,30,0.00,,FEW,0.00,VWS V14.00,2013-01-19 00:32:00,
2013-01-18 16:33:00,69.6,36.8,29.50,NE,48,4.9,5.8,30,0.00,,FEW,0.00,VWS V14.00,2013-01-19 00:33:00,
2013-01-18 16:34:00,69.6,36.8,29.50,North,2,6.3,6.3,30,0.00,,FEW,0.00,VWS V14.00,2013-01-19 00:34:00,
2013-01-18 16:35:00,69.6,36.8,29.50,North,2,6.3,6.3,30,0.00,,FEW,0.00,VWS V14.00,2013-01-19 00:35:00,
2013-01-18 16:36:00,69.6,36.8,29.50,North,2,6.3,6.3,30,0.00,,FEW,0.00,VWS V14.00,2013-01-19 00:36:00,
2013-01-18 16:37:00,69.6,36.8,29.50,North,2,6.3,6.3,30,0.00,,FEW,0.00,VWS V14.00,2013-01-19 00:37:00,
2013-01-18 16:38:00,69.6,36.8,29.50,North,2,6.3,6.3,30,0.00,,FEW,0.00,VWS V14.00,2013-01-19 00:38:00,
2013-01-18 16:39:00,69.6,36.8,29.50,North,2,10.3,10.3,30,0.00,,FEW,0.00,VWS V14.00,2013-01-19 00:39:00,
2013-01-18 16:40:00,69.4,36.7,29.50,NE,48,6.3,7.4,30,0.00,,FEW,0.00,VWS V14.00,2013-01-19 00:40:00,
2013-01-18 16:41:00,69.4,36.7,29.50,NE,48,6.3,6.3,30,0.00,,FEW,0.00,VWS V14.00,2013-01-19 00:41:00,
2013-01-18 16:42:00,69.4,36.7,29.50,East,92,7.6,7.6,30,0.00,,FEW,0.00,VWS V14.00,2013-01-19 00:42:00,
2013-01-18 16:43:00,69.3,36.5,29.50,NNE,25,6.0,7.6,30,0.00,,FEW,0.00,VWS V14.00,2013-01-19 00:43:00,
2013-01-18 16:44:00,69.3,36.5,29.50,North,2,9.8,9.8,30,0.00,,FEW,0.00,VWS V14.00,2013-01-19 00:44:00,
2013-01-18 16:45:00,69.1,36.4,29.50,NE,48,8.1,8.1,30,0.00,,FEW,0.00,VWS V14.00,2013-01-19 00:45:00,
2013-01-18 16:46:00,69.1,36.4,29.50,NNE,25,6.5,10.3,30,0.00,,FEW,0.00,VWS V14.00,2013-01-19 00:46:00,
2013-01-18 16:47:00,69.1,36.4,29.50,NE,48,8.1,8.1,30,0.00,,FEW,0.00,VWS V14.00,2013-01-19 00:47:00,
2013-01-18 16:48:00,69.1,36.4,29.50,NE,48,6.5,8.1,30,0.00,,FEW,0.00,VWS V14.00,2013-01-19 00:48:00,
2013-01-18 16:49:00,69.1,36.4,29.50,NE,48,6.5,6.5,30,0.00,,FEW,0.00,VWS V14.00,2013-01-19 00:49:00,
2013-01-18 16:50:00,68.7,36.1,29.50,ENE,70,4.3,4.3,30,0.00,,FEW,0.00,VWS V14.00,2013-01-19 00:50:00,
2013-01-18 16:51:00,68.7,36.1,29.50,ENE,70,4.3,6.9,30,0.00,,FEW,0.00,VWS V14.00,2013-01-19 00:51:00,
2013-01-18 16:52:00,68.7,36.1,29.50,East,92,12.1,12.1,30,0.00,,FEW,0.00,VWS V14.00,2013-01-19 00:52:00,
2013-01-18 16:53:00,68.5,35.9,29.50,NE,48,8.7,12.1,30,0.00,,FEW,0.00,VWS V14.00,2013-01-19 00:53:00,
2013-01-18 16:55:00,68.5,35.9,29.50,NE,48,6.0,8.1,30,0.00,,FEW,0.00,VWS V14.00,2013-01-19 00:55:00,
2013-01-18 16:56:00,68.5,35.9,29.50,East,92,8.1,8.7,30,0.00,,FEW,0.00,VWS V14.00,2013-01-19 00:56:00,
2013-01-18 16:57:00,68.5,35.9,29.50,NE,48,2.9,8.1,30,0.00,,FEW,0.00,VWS V14.00,2013-01-19 00:57:00,
2013-01-18 16:58:00,68.4,35.8,29.50,NNE,25,4.3,7.2,30,0.00,,FEW,0.00,VWS V14.00,2013-01-19 00:58:00,
2013-01-18 16:59:00,68.4,35.8,29.50,NE,48,9.6,9.6,30,0.00,,FEW,0.00,VWS V14.00,2013-01-19 00:59:00,
2013-01-18 17:00:00,68.4,35.8,29.50,NE,48,5.8,5.8,30,0.00,,FEW,0.00,VWS V14.00,2013-01-19 01:00:00,
2013-01-18 17:01:00,68.4,35.8,29.50,NE,48,4.3,4.3,30,0.00,,FEW,0.00,VWS V14.00,2013-01-19 01:01:00,
2013-01-18 17:02:00,68.2,35.6,29.50,North,2,6.5,6.5,30,0.00,,FEW,0.00,VWS V14.00,2013-01-19 01:02:00,
2013-01-18 17:03:00,68.2,35.6,29.50,North,2,10.5,10.5,30,0.00,,FEW,0.00,VWS V14.00,2013-01-19 01:03:00,
2013-01-18 17:04:00,68.2,35.6,29.50,East,92,5.6,10.5,30,0.00,,FEW,0.00,VWS V14.00,2013-01-19 01:04:00,
2013-01-18 17:05:00,68.0,35.4,29.47,North,2,5.8,5.8,30,0.00,,FEW,0.00,VWS V14.00,2013-01-19 01:05:00,
2013-01-18 17:06:00,68.0,35.4,29.47,North,2,5.4,6.0,30,0.00,,FEW,0.00,VWS V14.00,2013-01-19 01:06:00,
2013-01-18 17:07:00,68.0,35.4,29.47,NE,48,6.0,8.1,30,0.00,,FEW,0.00,VWS V14.00,2013-01-19 01:07:00,
2013-01-18 17:08:00,67.8,35.3,29.47,NE,48,3.8,6.0,30,0.00,,FEW,0.00,VWS V14.00,2013-01-19 01:08:00,
2013-01-18 17:09:00,67.8,35.3,29.47,ENE,70,2.5,5.4,30,0.00,,FEW,0.00,VWS V14.00,2013-01-19 01:09:00,
2013-01-18 17:10:00,67.6,35.1,29.47,NE,48,6.5,6.5,30,0.00,,FEW,0.00,VWS V14.00,2013-01-19 01:10:00,
2013-01-18 17:11:00,67.6,35.1,29.47,ENE,70,3.8,6.3,30,0.00,,FEW,0.00,VWS V14.00,2013-01-19 01:11:00,
2013-01-18 17:12:00,67.6,35.1,29.47,NE,48,5.8,6.5,30,0.00,,FEW,0.00,VWS V14.00,2013-01-19 01:12:00,
2013-01-18 17:13:00,67.5,35.0,29.47,NE,48,2.9,7.2,30,0.00,,FEW,0.00,VWS V14.00,2013-01-19 01:13:00,
2013-01-18 17:14:00,67.5,35.0,29.47,NE,48,2.9,2.9,30,0.00,,FEW,0.00,VWS V14.00,2013-01-19 01:14:00,
2013-01-18 17:15:00,67.3,34.8,29.47,NE,48,5.6,5.6,30,0.00,,FEW,0.00,VWS V14.00,2013-01-19 01:15:00,
2013-01-18 17:16:00,67.3,34.8,29.47,NE,48,5.6,8.1,30,0.00,,FEW,0.00,VWS V14.00,2013-01-19 01:16:00,
2013-01-18 17:17:00,67.3,34.8,29.47,ENE,70,8.5,8.5,30,0.00,,FEW,0.00,VWS V14.00,2013-01-19 01:17:00,
2013-01-18 17:18:00,67.3,34.8,29.47,NNW,340,6.9,10.7,30,0.00,,FEW,0.00,VWS V14.00,2013-01-19 01:18:00,
2013-01-18 17:19:00,67.3,34.8,29.47,NNW,340,6.9,6.9,30,0.00,,FEW,0.00,VWS V14.00,2013-01-19 01:19:00,
2013-01-18 17:20:00,67.3,34.8,29.47,NE,48,3.6,4.9,30,0.00,,FEW,0.00,VWS V14.00,2013-01-19 01:20:00,
2013-01-18 17:21:00,67.3,34.8,29.47,NE,48,4.9,6.0,30,0.00,,FEW,0.00,VWS V14.00,2013-01-19 01:21:00,
2013-01-18 17:22:00,67.3,34.8,29.47,NE,48,7.8,7.8,30,0.00,,FEW,0.00,VWS V14.00,2013-01-19 01:22:00,
2013-01-18 17:23:00,67.3,34.8,29.47,NE,48,6.3,9.8,30,0.00,,FEW,0.00,VWS V14.00,2013-01-19 01:23:00,
2013-01-18 17:24:00,67.3,34.8,29.47,East,92,6.0,6.5,30,0.00,,FEW,0.00,VWS V14.00,2013-01-19 01:24:00,
2013-01-18 17:25:00,67.3,34.8,29.47,NE,48,7.6,7.6,30,0.00,,FEW,0.00,VWS V14.00,2013-01-19 01:25:00,
2013-01-18 17:26:00,67.3,34.8,29.47,ENE,70,7.6,7.6,30,0.00,,FEW,0.00,VWS V14.00,2013-01-19 01:26:00,
2013-01-18 17:27:00,67.3,34.8,29.47,NE,48,11.0,11.0,30,0.00,,FEW,0.00,VWS V14.00,2013-01-19 01:27:00,
2013-01-18 17:28:00,67.3,34.8,29.47,ENE,70,6.5,11.0,30,0.00,,FEW,0.00,VWS V14.00,2013-01-19 01:28:00,
2013-01-18 17:29:00,67.3,34.8,29.47,East,92,4.0,7.8,30,0.00,,FEW,0.00,VWS V14.00,2013-01-19 01:29:00,
2013-01-18 17:30:00,67.3,34.8,29.47,NE,48,6.3,6.3,30,0.00,,FEW,0.00,VWS V14.00,2013-01-19 01:30:00,
2013-01-18 17:31:00,67.3,34.8,29.47,NNE,25,3.4,6.9,30,0.00,,FEW,0.00,VWS V14.00,2013-01-19 01:31:00,
2013-01-18 17:32:00,67.1,34.7,29.47,East,92,6.0,6.3,30,0.00,,FEW,0.00,VWS V14.00,2013-01-19 01:32:00,
2013-01-18 17:33:00,67.1,34.7,29.47,NE,48,8.1,9.2,30,0.00,,FEW,0.00,VWS V14.00,2013-01-19 01:33:00,
2013-01-18 17:34:00,67.1,34.7,29.47,NE,48,10.3,10.3,30,0.00,,FEW,0.00,VWS V14.00,2013-01-19 01:34:00,
2013-01-18 17:35:00,66.9,34.5,29.50,ENE,70,8.5,10.3,30,0.00,,FEW,0.00,VWS V14.00,2013-01-19 01:35:00,
2013-01-18 17:36:00,66.9,34.5,29.50,NE,48,10.3,10.3,30,0.00,,FEW,0.00,VWS V14.00,2013-01-19 01:36:00,
2013-01-18 17:37:00,66.7,34.3,29.50,NE,48,6.5,10.3,30,0.00,,FEW,0.00,VWS V14.00,2013-01-19 01:37:00,
2013-01-18 17:38:00,66.7,34.3,29.50,East,92,6.3,10.1,30,0.00,,FEW,0.00,VWS V14.00,2013-01-19 01:38:00,
2013-01-18 17:39:00,66.7,34.3,29.50,East,92,10.3,10.3,30,0.00,,FEW,0.00,VWS V14.00,2013-01-19 01:39:00,
2013-01-18 17:40:00,66.7,34.3,29.50,NE,48,5.8,5.8,30,0.00,,FEW,0.00,VWS V14.00,2013-01-19 01:40:00,
2013-01-18 17:41:00,66.7,34.3,29.50,NE,48,5.6,7.2,30,0.00,,FEW,0.00,VWS V14.00,2013-01-19 01:41:00,
2013-01-18 17:42:00,66.7,34.3,29.50,NE,48,4.7,5.8,30,0.00,,FEW,0.00,VWS V14.00,2013-01-19 01:42:00,
2013-01-18 17:43:00,66.6,34.2,29.50,ENE,70,6.0,6.0,30,0.00,,FEW,0.00,VWS V14.00,2013-01-19 01:43:00,
2013-01-18 17:44:00,66.4,34.0,29.50,North,2,5.8,6.0,30,0.00,,FEW,0.00,VWS V14.00,2013-01-19 01:44:00,
2013-01-18 17:45:00,66.4,34.0,29.50,NE,48,3.6,4.3,30,0.00,,FEW,0.00,VWS V14.00,2013-01-19 01:45:00,
2013-01-18 17:46:00,66.4,34.0,29.50,East,92,3.6,6.5,30,0.00,,FEW,0.00,VWS V14.00,2013-01-19 01:46:00,
2013-01-18 17:47:00,66.2,33.9,29.50,NE,48,3.8,4.3,30,0.00,,FEW,0.00,VWS V14.00,2013-01-19 01:47:00,
2013-01-18 17:48:00,66.4,34.0,29.50,NE,48,8.5,8.5,30,0.00,,FEW,0.00,VWS V14.00,2013-01-19 01:48:00,
2013-01-18 17:49:00,66.4,34.0,29.50,NE,48,6.3,10.5,30,0.00,,FEW,0.00,VWS V14.00,2013-01-19 01:49:00,
2013-01-18 17:50:00,66.6,34.2,29.47,NE,48,3.8,6.3,30,0.00,,FEW,0.00,VWS V14.00,2013-01-19 01:50:00,
2013-01-18 17:51:00,66.6,34.2,29.47,NE,48,4.9,9.0,30,0.00,,FEW,0.00,VWS V14.00,2013-01-19 01:51:00,
2013-01-18 17:52:00,66.6,34.2,29.47,NE,48,7.2,10.5,30,0.00,,FEW,0.00,VWS V14.00,2013-01-19 01:52:00,
2013-01-18 17:53:00,66.6,34.2,29.47,NE,48,7.2,7.2,30,0.00,,FEW,0.00,VWS V14.00,2013-01-19 01:53:00,
2013-01-18 17:54:00,66.6,34.2,29.47,NE,48,6.0,7.2,30,0.00,,FEW,0.00,VWS V14.00,2013-01-19 01:54:00,
2013-01-18 17:55:00,66.4,34.0,29.47,NE,48,4.9,4.9,30,0.00,,FEW,0.00,VWS V14.00,2013-01-19 01:55:00,
2013-01-18 17:56:00,66.4,34.0,29.47,NE,48,4.9,6.7,30,0.00,,FEW,0.00,VWS V14.00,2013-01-19 01:56:00,
2013-01-18 17:57:00,66.4,34.0,29.47,NE,48,4.9,4.9,30,0.00,,FEW,0.00,VWS V14.00,2013-01-19 01:57:00,
2013-01-18 17:58:00,66.4,34.0,29.47,NE,48,4.0,4.9,30,0.00,,FEW,0.00,VWS V14.00,2013-01-19 01:58:00,
2013-01-18 17:59:00,66.2,33.9,29.47,NE,48,5.8,6.7,30,0.00,,FEW,0.00,VWS V14.00,2013-01-19 01:59:00,
2013-01-18 18:00:00,66.2,33.9,29.47,East,92,7.2,7.2,30,0.00,,FEW,0.00,VWS V14.00,2013-01-19 02:00:00,
2013-01-18 18:01:00,66.2,33.9,29.47,NE,48,6.9,7.4,30,0.00,,FEW,0.00,VWS V14.00,2013-01-19 02:01:00,
2013-01-18 18:02:00,66.2,33.9,29.47,NNE,25,4.3,7.2,30,0.00,,FEW,0.00,VWS V14.00,2013-01-19 02:02:00,
2013-01-18 18:03:00,66.2,33.9,29.47,NE,48,7.4,7.4,30,0.00,,FEW,0.00,VWS V14.00,2013-01-19 02:03:00,
2013-01-18 18:04:00,66.2,33.9,29.47,NE,48,7.8,7.8,30,0.00,,FEW,0.00,VWS V14.00,2013-01-19 02:04:00,
2013-01-18 18:05:00,66.4,34.0,29.50,East,92,4.0,5.6,30,0.00,,FEW,0.00,VWS V14.00,2013-01-19 02:05:00,
2013-01-18 18:06:00,66.4,34.0,29.50,NE,48,5.4,10.1,30,0.00,,FEW,0.00,VWS V14.00,2013-01-19 02:06:00,
2013-01-18 18:07:00,66.2,33.9,29.50,NE,48,3.8,7.2,30,0.00,,FEW,0.00,VWS V14.00,2013-01-19 02:07:00,
2013-01-18 18:08:00,66.2,33.9,29.50,NE,48,5.4,5.6,30,0.00,,FEW,0.00,VWS V14.00,2013-01-19 02:08:00,
2013-01-18 18:09:00,66.2,33.9,29.50,ENE,70,3.1,3.1,30,0.00,,FEW,0.00,VWS V14.00,2013-01-19 02:09:00,
2013-01-18 18:10:00,65.8,34.4,29.50,ENE,70,4.0,4.0,31,0.00,,FEW,0.00,VWS V14.00,2013-01-19 02:10:00,
2013-01-18 18:11:00,65.8,34.4,29.50,NE,48,4.0,4.0,31,0.00,,FEW,0.00,VWS V14.00,2013-01-19 02:11:00,
2013-01-18 18:12:00,65.7,34.2,29.50,North,2,6.5,6.5,31,0.00,,FEW,0.00,VWS V14.00,2013-01-19 02:12:00,
2013-01-18 18:13:00,65.5,34.1,29.50,NE,48,3.1,6.5,31,0.00,,FEW,0.00,VWS V14.00,2013-01-19 02:13:00,
2013-01-18 18:14:00,65.5,34.1,29.50,NE,48,5.8,5.8,31,0.00,,FEW,0.00,VWS V14.00,2013-01-19 02:14:00,
2013-01-18 18:15:00,65.7,34.2,29.50,North,2,8.1,8.1,31,0.00,,FEW,0.00,VWS V14.00,2013-01-19 02:15:00,
2013-01-18 18:16:00,65.7,34.2,29.50,NE,48,4.3,8.1,31,0.00,,FEW,0.00,VWS V14.00,2013-01-19 02:16:00,
2013-01-18 18:17:00,65.7,34.2,29.50,NE,48,8.1,8.1,31,0.00,,FEW,0.00,VWS V14.00,2013-01-19 02:17:00,
2013-01-18 18:18:00,65.8,34.4,29.50,ENE,70,6.3,8.1,31,0.00,,FEW,0.00,VWS V14.00,2013-01-19 02:18:00,
2013-01-18 18:19:00,66.0,34.5,29.50,East,92,6.5,6.5,31,0.00,,FEW,0.00,VWS V14.00,2013-01-19 02:19:00,
2013-01-18 18:20:00,66.0,34.5,29.50,NE,48,5.6,6.5,31,0.00,,FEW,0.00,VWS V14.00,2013-01-19 02:20:00,
2013-01-18 18:21:00,66.0,34.5,29.50,ENE,70,6.0,6.0,31,0.00,,FEW,0.00,VWS V14.00,2013-01-19 02:21:00,
2013-01-18 18:22:00,66.0,34.5,29.50,NE,48,3.8,6.0,31,0.00,,FEW,0.00,VWS V14.00,2013-01-19 02:22:00,
2013-01-18 18:23:00,66.0,34.5,29.50,NE,48,5.8,5.8,31,0.00,,FEW,0.00,VWS V14.00,2013-01-19 02:23:00,
2013-01-18 18:24:00,66.0,34.5,29.50,NE,48,7.4,7.4,31,0.00,,FEW,0.00,VWS V14.00,2013-01-19 02:24:00,
2013-01-18 18:25:00,66.0,34.5,29.50,NE,48,6.0,7.4,31,0.00,,FEW,0.00,VWS V14.00,2013-01-19 02:25:00,
2013-01-18 18:26:00,66.2,33.9,29.50,NNE,25,7.8,7.8,30,0.00,,FEW,0.00,VWS V14.00,2013-01-19 02:26:00,
2013-01-18 18:27:00,66.0,34.5,29.50,ENE,70,4.0,7.8,31,0.00,,FEW,0.00,VWS V14.00,2013-01-19 02:27:00,
2013-01-18 18:28:00,66.0,34.5,29.50,NE,48,5.6,5.6,31,0.00,,FEW,0.00,VWS V14.00,2013-01-19 02:28:00,
2013-01-18 18:29:00,66.0,34.5,29.50,NE,48,6.0,6.0,31,0.00,,FEW,0.00,VWS V14.00,2013-01-19 02:29:00,
2013-01-18 18:30:00,66.0,34.5,29.50,South,182,6.3,6.3,31,0.00,,FEW,0.00,VWS V14.00,2013-01-19 02:30:00,
2013-01-18 18:31:00,66.0,34.5,29.50,South,182,6.3,6.3,31,0.00,,FEW,0.00,VWS V14.00,2013-01-19 02:31:00,
2013-01-18 18:32:00,66.0,34.5,29.50,South,182,6.3,6.3,31,0.00,,FEW,0.00,VWS V14.00,2013-01-19 02:32:00,
2013-01-18 18:33:00,65.8,34.4,29.50,NE,48,3.6,6.3,31,0.00,,FEW,0.00,VWS V14.00,2013-01-19 02:33:00,
2013-01-18 18:34:00,65.8,34.4,29.50,NNW,340,4.3,4.3,31,0.00,,FEW,0.00,VWS V14.00,2013-01-19 02:34:00,
2013-01-18 18:35:00,65.7,34.2,29.50,East,92,3.6,4.3,31,0.00,,FEW,0.00,VWS V14.00,2013-01-19 02:35:00,
2013-01-18 18:36:00,65.7,34.2,29.50,NE,48,8.1,8.1,31,0.00,,FEW,0.00,VWS V14.00,2013-01-19 02:36:00,
2013-01-18 18:37:00,65.7,34.2,29.50,South,182,3.8,8.1,31,0.00,,FEW,0.00,VWS V14.00,2013-01-19 02:37:00,
2013-01-18 18:38:00,65.8,34.4,29.50,ESE,115,7.4,7.4,31,0.00,,FEW,0.00,VWS V14.00,2013-01-19 02:38:00,
2013-01-18 18:39:00,65.7,34.2,29.50,NE,48,2.7,7.4,31,0.00,,FEW,0.00,VWS V14.00,2013-01-19 02:39:00,
2013-01-18 18:40:00,65.7,34.2,29.50,ENE,70,3.6,3.6,31,0.00,,FEW,0.00,VWS V14.00,2013-01-19 02:40:00,
2013-01-18 18:41:00,65.5,34.1,29.50,NE,48,4.3,4.3,31,0.00,,FEW,0.00,VWS V14.00,2013-01-19 02:41:00,
2013-01-18 18:42:00,65.1,33.8,29.50,East,92,2.0,4.3,31,0.00,,FEW,0.00,VWS V14.00,2013-01-19 02:42:00,
2013-01-18 18:43:00,64.9,33.6,29.50,SSE,160,2.7,2.7,31,0.00,,FEW,0.00,VWS V14.00,2013-01-19 02:43:00,
2013-01-18 18:44:00,64.9,33.6,29.50,SSE,160,2.7,2.7,31,0.00,,FEW,0.00,VWS V14.00,2013-01-19 02:44:00,
2013-01-18 18:45:00,64.8,33.5,29.50,ESE,115,2.7,2.7,31,0.00,,FEW,0.00,VWS V14.00,2013-01-19 02:45:00,
2013-01-18 18:46:00,64.6,33.3,29.50,NNE,25,7.4,7.4,31,0.00,,FEW,0.00,VWS V14.00,2013-01-19 02:46:00,
2013-01-18 18:47:00,64.6,33.3,29.50,NNE,25,7.4,7.4,31,0.00,,FEW,0.00,VWS V14.00,2013-01-19 02:47:00,
2013-01-18 18:48:00,64.4,33.1,29.50,East,92,2.9,7.4,31,0.00,,FEW,0.00,VWS V14.00,2013-01-19 02:48:00,
2013-01-18 18:50:00,64.2,33.0,29.47,East,92,2.5,2.9,31,0.00,,FEW,0.00,VWS V14.00,2013-01-19 02:50:00,
2013-01-18 18:51:00,63.9,32.7,29.47,East,92,2.5,2.5,31,0.00,,FEW,0.00,VWS V14.00,2013-01-19 02:51:00,